Location: ??????
(56.0120°N, 39.1740°E)
Time: 21:46:41
(UTC+00:00)

Cosmos 1980 Rocket - Pass Details

Date: 14 April 2026
Orbit: 826 x 850 km, 71.0° (Epoch: 11 May)

Event Time Altitude Azimuth Distance (km) Brightness Sun altitude
Rises 20:58:29 0° 320° (NW) 3,418 6.3 -24.1°
Reaches altitude 10° 21:01:14 10° 331° (NNW) 2,484 5.5 -24.2°
Maximum altitude 21:06:17 31° 33° (NNE) 1,458 3.9 -24.2°
Drops below altitude 10° 21:11:18 10° 95° (E) 2,482 4.5 -24.3°
Enters shadow 21:12:41 - 101° (ESE) 2,942 4.9 -24.3°
